Change the Weather History Date:

Monday, May 13, 2013

  Actual Average Record
Temperature  
Mean Temperature 54 °F -  
Max Temperature 62 °F 65 °F 83 °F (1949)
Min Temperature 46 °F 45 °F 32 °F (1956)
Degree Days  
Heating Degree Days 12    
Growing Degree Days 4 (Base 50)    
Moisture  
Dew Point 52 °F    
Average Humidity 91    
Maximum Humidity 100    
Minimum Humidity 71    
Precipitation  
Precipitation 0.06 in - - ()
Sea Level Pressure  
Sea Level Pressure 30.04 in    
Wind  
Wind Speed 9 mph (SW)    
Max Wind Speed 24 mph    
Max Gust Speed 34 mph    
Visibility 9 miles    
Events Rain    
Averages and records for this station are not official NWS values.
T = Trace of Precipitation, MM = Missing Value Source: NWS Daily Summary

Daily Weather History Graph

Daily Weather History Graph

Search for Another Location

Airport or City:

Trip Planner

Search our weather history database for the weather conditions in past years. The results will help you decide how hot, cold, wet, or windy it might be!

Date:

Astronomy

May. 13, 2013 Rise Set
Actual Time 5:38 AM PDT 8:40 PM PDT
Civil Twilight 5:02 AM PDT 9:16 PM PDT
Nautical Twilight 4:16 AM PDT 10:02 PM PDT
Astronomical Twilight 3:19 AM PDT 10:59 PM PDT
Moon 8:28 AM PDT (5/13) 11:52 PM PDT (5/13)
Length of Visible Light 16h 13m
Length of Day
15h 01m
Waxing Crescent, 13% of the Moon is Illuminated
May 13
Waxing Crescent
May 17
First Quarter
May 24
Full
May 31
Last Quarter
Jun 8
New

Hourly Weather History & Observations

Time (PDT) Temp. Windchill Dew Point Humidity Pressure Visibility Wind Dir Wind Speed Gust Speed Precip Events Conditions
12:05 AM 53.6 °F - 53.6 °F 100% 30.05 in 10.0 mi SW 8.1 mph - N/A   Mostly Cloudy
12:26 AM 53.6 °F - 53.6 °F 100% 30.05 in 10.0 mi SW 9.2 mph - N/A   Mostly Cloudy
12:53 AM 54.0 °F - 54.0 °F 100% 30.05 in 10.0 mi SW 6.9 mph - N/A   Overcast
1:11 AM 53.6 °F - 53.6 °F 100% 30.05 in 3.0 mi WSW 5.8 mph - N/A   Overcast
1:40 AM 53.6 °F - 53.6 °F 100% 30.04 in 3.0 mi WSW 6.9 mph - N/A   Overcast
1:53 AM 54.0 °F - 54.0 °F 100% 30.04 in 4.0 mi WSW 4.6 mph - N/A   Overcast
2:15 AM 53.6 °F - 53.6 °F 100% 30.04 in 7.0 mi SW 6.9 mph - N/A   Overcast
2:33 AM 55.4 °F - 53.6 °F 94% 30.03 in 9.0 mi SSW 6.9 mph - N/A   Overcast
2:46 AM 55.4 °F - 53.6 °F 94% 30.04 in 5.0 mi SW 8.1 mph - N/A   Overcast
2:53 AM 55.0 °F - 54.0 °F 96% 30.04 in 4.0 mi SW 6.9 mph - N/A   Overcast
3:39 AM 53.6 °F - 53.6 °F 100% 30.02 in 10.0 mi WSW 5.8 mph - 0.01 in   Scattered Clouds
3:53 AM 54.0 °F - 53.1 °F 97% 30.02 in 10.0 mi SW 6.9 mph - 0.01 in   Clear
4:17 AM 53.6 °F - 53.6 °F 100% 30.02 in 10.0 mi WSW 8.1 mph - N/A   Mostly Cloudy
4:53 AM 54.0 °F - 52.0 °F 93% 30.02 in 10.0 mi SW 6.9 mph - N/A   Overcast
5:15 AM 53.6 °F - 53.6 °F 100% 30.01 in 8.0 mi SW 4.6 mph - 0.00 in Rain Light Rain
5:53 AM 53.1 °F - 52.0 °F 96% 30.01 in 10.0 mi SW 3.5 mph - 0.00 in   Mostly Cloudy
6:19 AM 53.6 °F - 51.8 °F 94% 30.00 in 10.0 mi SW 4.6 mph - N/A   Mostly Cloudy
6:42 AM 53.6 °F - 53.6 °F 100% 30.01 in 10.0 mi SW 6.9 mph - N/A   Overcast
6:53 AM 54.0 °F - 53.1 °F 97% 30.01 in 10.0 mi WSW 6.9 mph - N/A   Overcast
7:22 AM 53.6 °F - 53.6 °F 100% 30.01 in 10.0 mi SW 5.8 mph - N/A   Overcast
7:53 AM 55.0 °F - 53.1 °F 93% 30.01 in 6.0 mi SW 5.8 mph - 0.00 in Rain Light Rain
8:19 AM 55.4 °F - 53.6 °F 94% 30.00 in 10.0 mi WSW 4.6 mph - 0.00 in   Overcast
8:53 AM 55.0 °F - 53.1 °F 93% 30.01 in 10.0 mi WSW 5.8 mph - 0.00 in   Overcast
9:16 AM 55.4 °F - 53.6 °F 94% 30.00 in 10.0 mi SW 6.9 mph - N/A   Overcast
9:31 AM 57.2 °F - 55.4 °F 94% 29.99 in 10.0 mi WSW 8.1 mph - N/A   Overcast
9:53 AM 57.9 °F - 55.0 °F 90% 29.99 in 10.0 mi WSW 8.1 mph - N/A   Mostly Cloudy
10:03 AM 57.2 °F - 53.6 °F 88% 29.98 in 10.0 mi West 5.8 mph - N/A   Overcast
10:41 AM 60.8 °F - 55.4 °F 82% 29.97 in 10.0 mi SW 12.7 mph - 0.00 in   Overcast
10:53 AM 61.0 °F - 54.0 °F 78% 29.97 in 10.0 mi SW 11.5 mph - 0.00 in   Mostly Cloudy
11:53 AM 59.0 °F - 54.0 °F 83% 29.96 in 10.0 mi WSW 13.8 mph - N/A   Mostly Cloudy
1:33 PM 59.0 °F - 53.6 °F 82% 29.97 in 10.0 mi SSW 16.1 mph 25.3 mph 0.00 in   Overcast
1:53 PM 59.0 °F - 52.0 °F 78% 29.98 in 9.0 mi SW 21.9 mph 33.4 mph 0.00 in Rain Light Rain
2:10 PM 57.2 °F - 53.6 °F 88% 29.99 in 10.0 mi SW 21.9 mph 32.2 mph 0.01 in Rain Light Rain
2:24 PM 55.4 °F - 51.8 °F 88% 30.00 in 4.0 mi WSW 19.6 mph 34.5 mph 0.01 in Rain Light Rain
2:31 PM 55.4 °F - 51.8 °F 88% 30.00 in 9.0 mi WSW 24.2 mph 33.4 mph 0.02 in Rain Light Rain
2:53 PM 57.0 °F - 52.0 °F 83% 30.00 in 10.0 mi WSW 23.0 mph 29.9 mph 0.02 in Rain Light Rain
3:53 PM 55.0 °F - 51.1 °F 86% 30.03 in 10.0 mi SW 18.4 mph 31.1 mph 0.03 in Rain Light Rain
6:53 PM 52.0 °F - 43.0 °F 71% 30.12 in 10.0 mi WSW 19.6 mph 27.6 mph 0.00 in Rain Light Rain
7:53 PM 50.0 °F - 44.1 °F 80% 30.15 in 10.0 mi SW 10.4 mph 17.3 mph 0.00 in   Partly Cloudy
8:53 PM 50.0 °F - 44.1 °F 80% 30.18 in 10.0 mi SW 5.8 mph - 0.00 in   Overcast
9:06 PM 48.2 °F - 44.6 °F 87% 30.18 in 10.0 mi West 5.8 mph - N/A   Overcast
9:53 PM 48.9 °F - 45.0 °F 86% 30.20 in 10.0 mi WSW 4.6 mph - 0.00 in Rain Light Rain
10:06 PM 48.2 °F - 44.6 °F 87% 30.19 in 10.0 mi SW 3.5 mph - 0.00 in   Overcast
10:53 PM 46.0 °F 41.4 °F 43.0 °F 89% 30.20 in 10.0 mi SW 9.2 mph - 0.00 in   Clear
11:53 PM 46.0 °F 43.9 °F 44.1 °F 93% 30.20 in 10.0 mi West 4.6 mph - N/A   Partly Cloudy